Regional Weather Roundup
Issued by NWS

Home | Current Version | Previous Version | Text Only | Print | Product List | Glossary On
Versions: 1 2 3 4 5 6 7 8 9 10 11 12 13 14 15 16 17 18 19 20 21 22 23 24 25 26 27
000
ASUS43 KMPX 251210
RWRMN
WEATHER ROUNDUP FOR MINNESOTA
NATIONAL WEATHER SERVICE TWIN CITIES/CHANHASSEN MN
700 AM CDT WED MAY 25 2022


NOTE: "FAIR" INDICATES FEW OR NO CLOUDS BELOW 12,000 FEET WITH NO
SIGNIFICANT WEATHER AND/OR OBSTRUCTIONS TO VISIBILITY. N/A MEANS
CURRENT SKY AND/OR WEATHER CONDITIONS ARE NOT AVAILABLE.

MNZ060>063-068>070-251300-
   Twin Cities Metro

CITY           SKY/WX    TMP DP  RH WIND       PRES   REMARKS
TWIN CITIES    LGT RAIN  49  46  90 NE13      30.07S
6HR MIN TEMP:  49; 6HR MAX TEMP:  56; 6HR PCP:  0.34;

ST PAUL        LGT RAIN  50  47  89 E10       30.08S
CRYSTAL        LGT RAIN  50  50 100 NE9       30.07S
BLAINE         LGT RAIN  50  48  93 NE9       30.08S
LAKEVILLE      HVY RAIN  48  48 100 E10       30.05S
EDEN PRAIRIE   LGT RAIN  49  47  93 NE14G21   30.05S
6HR MIN TEMP:  49; 6HR MAX TEMP:  54; 6HR PCP:  0.34;

SOUTH ST PAUL  LGT RAIN  49  48  99 NE6       30.07R
LAKE ELMO      LGT RAIN  46  46 100 E13       30.09R
$$
MNZ001>005-007-008-013>017-022>024-027-028-251300-
   Northwest Minnesota

CITY           SKY/WX    TMP DP  RH WIND       PRES   REMARKS
BEMIDJI        CLOUDY    46  46  97 CALM      30.11R
HALLOCK        MOSUNNY   52  46  82 E5        30.09S
ROSEAU           N/A     50  46  87 E3        30.12S
WARROAD        PTSUNNY   48  45  87 CALM      30.12F
THIEF RVR FALL CLOUDY    53  45  74 E8        30.11R
CROOKSTON      PTSUNNY   54  43  66 E7        30.09S
FOSSTON          N/A    N/A N/A N/A MISG        N/A
MOORHEAD       CLOUDY    54  43  66 SE3       30.08R
PARK RAPIDS    CLOUDY    52  39  61 SE5       30.10R
MAHNOMEN       FAIR      51  42  73 SE3       30.08F
$$
MNZ006-009>011-018-025>026-251300-
   North Central Minnesota

CITY           SKY/WX    TMP DP  RH WIND       PRES   REMARKS
BAUDETTE       PTSUNNY   48  45  89 CALM      30.12S
FLAG ISLAND    PTSUNNY   46  43  87 CALM      30.12S
INTL FALLS     CLOUDY    49  43  80 SE5       30.13S
6HR MIN TEMP:  44; 6HR MAX TEMP:  50;

WASKISH        CLOUDY    52  45  76 CALM      30.12R
BIG FORK       CLOUDY    48  43  81 CALM      30.18R
LONGVILLE      CLOUDY    52  43  71 CALM      30.12R
GRAND RAPIDS   CLOUDY    50  40  68 SE3       30.16R
CRANE LAKE       N/A     43  39  87 CALM      30.18S
COOK           CLOUDY    46  37  71 CALM      30.14S
WALKER         CLOUDY    48  46  93 CALM      30.11S
$$
MNZ012-019>021-037-251300-
   Northeast Minnesota

CITY           SKY/WX    TMP DP  RH WIND       PRES   REMARKS
DULUTH         CLOUDY    50  36  58 E9        30.16R
6HR MIN TEMP:  50; 6HR MAX TEMP:  54;

ELY            CLOUDY    45  41  87 CALM      30.16F
HIBBING        CLOUDY    48  39  71 CALM      30.14S
EVELETH        CLOUDY    48  41  76 NE3       30.16S
DULUTH HARBOR  CLOUDY    43  39  87 NE7       30.17S
TWO HARBORS    CLOUDY    48  36  61 CALM      30.17R
GRAND MARAIS     N/A     46  36  68 E6        30.20F
G MARAIS ARPRT CLOUDY    45  39  81 N3        30.20S
$$
MNZ029>031-032-039>041-046>048-054>057-064-251300-
   West Central Minnesota

CITY           SKY/WX    TMP DP  RH WIND       PRES   REMARKS
FERGUS FALLS   CLOUDY    54  43  66 CALM      30.04S
WHEATON        CLOUDY    52  46  82 SE7       30.09R
MORRIS         DRIZZLE   50  46  87 SE9       30.09R
ALEXANDRIA     PTSUNNY   52  46  80 E8        30.10R
ELBOW LAKE     CLOUDY    51  46  84 SE3       30.08S
WADENA         CLOUDY    52  39  62 SE8       30.10R
GLENWOOD       PTSUNNY   52  48  87 E10       30.10R
APPLETON       CLOUDY    54  46  76 NE6       30.07S
BENSON         CLOUDY    50  46  87 E5        30.09R
ORTONVILLE     DRIZZLE   50  46  87 SE6       30.07R
MADISON        LGT RAIN  54  48  82 N5        30.08R
WILLMAR        PTSUNNY   54  48  82 NE12      30.08S
$$
MNZ033>034-036-042>043-049>051-058-059-251300-
   Central Minnesota

CITY           SKY/WX    TMP DP  RH WIND       PRES   REMARKS
ST CLOUD       CLOUDY    50  47  89 VRB7      30.08F
6HR MIN TEMP:  50; 6HR MAX TEMP:  58; 6HR PCP:  0.06;

SAUK CENTRE    CLOUDY    49  46  88 E13G20    30.08F
PAYNESVILLE    CLOUDY    50  45  81 E13       30.08S
AITKIN         LGT RAIN  52  46  82 CALM      30.14R
PINE RIVER       N/A     54  45  71 SE5       30.15R
BRAINERD       LGT RAIN  53  44  71 SE6       30.13R
STAPLES          N/A     55  43  62 S6        30.11R
LONG PRAIRIE   CLOUDY    48  45  87 E10       30.11S
LITTLE FALLS   DRIZZLE   50  46  87 E7        30.11F
CAMP RIPLEY    LGT RAIN  51  47  86 SE10      30.11R
LITCHFIELD     CLOUDY    52  46  82 E9        30.06F
BUFFALO        LGT RAIN  48  46  93 E10G16    30.07F
MAPLE LAKE     CLOUDY    50  45  81 E12G17    30.07F
HUTCHINSON     CLOUDY    50  48  94 NE14G21   30.05F
$$
MNZ037-044-045-052-053-251300-
   East Central Minnesota

CITY           SKY/WX    TMP DP  RH WIND       PRES   REMARKS
PRINCETON      LGT RAIN  50  46  87 NE8       30.10F
MORA           LGT RAIN  45  43  93 CALM      30.15S
CAMBRIDGE      LGT RAIN  52  43  71 CALM      30.11S
RUSH CITY      RAIN      48  46  92 NE7       30.12S
MOOSE LAKE     CLOUDY    52  41  66 CALM      30.15R
HINCKLEY       RAIN      48  46  93 NE5       30.14S
CLOQUET          N/A     48  36  61 SE6       30.15R
MCGREGOR       CLOUDY    52  45  76 E7        30.15R
$$
MNZ071>073-080-081-089-090-097-098-251300-
   Southwest Minnesota

CITY           SKY/WX    TMP DP  RH WIND       PRES   REMARKS
MONTEVIDEO     CLOUDY    50  46  87 MISG      30.06R
GRANITE FALLS  LGT RAIN  51  49  92 E6        30.06R
CANBY          CLOUDY    50  46  87 NE7       30.06S
MARSHALL       LGT RAIN  50  48  93 E8        30.04R
REDWOOD FALLS  CLOUDY    50  46  86 NE9       30.02S
OLIVIA         CLOUDY    50  45  81 E10       30.03S
PIPESTONE        N/A     48  45  87 E12G18    30.00R
WINDOM         DRIZZLE   46  46 100 NE12      29.98S
WORTHINGTON    CLOUDY    48  47  96 NE13      29.98R
JACKSON        LGT RAIN  46  46 100 NE17      29.98S
TRACY          CLOUDY    49  45  85 NE12      30.02S
SLAYTON        CLOUDY    47  46  96 NE12G21   30.01R
$$
MNZ065>067-074>077-082>085-091>093-251300-
   South Central Minnesota

CITY           SKY/WX    TMP DP  RH WIND       PRES   REMARKS
MANKATO        LGT RAIN  49  47  93 NE14      30.01F
NEW ULM        LGT RAIN  48  46  93 NE8       30.01S
ST JAMES       RAIN      48  46  93 NE10G16   29.99S
FAIRMONT       LGT RAIN  49  47  93 NE15      29.98R
GLENCOE        DRIZZLE   49  46  92 NE8G20    30.04S
FARIBAULT      LGT RAIN  48  46  93 NE10G17   30.02S
OWATONNA       LGT RAIN  48  46  93 NE18G24   29.99F
WASECA           N/A     46  46 100 NE20G29   30.00F
ALBERT LEA     DRIZZLE   46  46 100 NE15G21   29.97S
$$
MNZ078>079-086>088-094>096-251300-
   Southeast Minnesota

CITY           SKY/WX    TMP DP  RH WIND       PRES   REMARKS
ROCHESTER      LGT RAIN  46  44  93 NE17      29.98F FOG
6HR MIN TEMP:  46; 6HR MAX TEMP:  50; 6HR PCP:  0.85;

RED WING       RAIN      48  46  93 E9        30.06R
STANTON        LGT RAIN  48  47  93 E15       30.03S
DODGE CENTER   RAIN      46  45  93 NE16G22   29.99F
AUSTIN         LGT RAIN  48  46  93 NE16G22   29.96F
PRESTON        CLOUDY    46  45  96 NE12G17   29.97F FOG
$$
ABBREVIATIONS USED IN REMARKS
   TC - TEMPERATURES IN CELSIUS
  WCI - WIND CHILL INDEX
   HX - HEAT INDEX
  VSB - VISIBILITY
$$



USA.gov is the U.S. government's official web portal to all federal, state and local government web resources and services.